[[{"header":{"parameterUnit":"m.s-1","parameterCategory":1,"la1":30.2991,"la2":30.254,"lo1":-89.0895,"lo2":-89.0444,"dy":0.0017,"dx":0.0017,"nx":28,"ny":28,"refTime":"2023-09-26T21:00:00:Z","depth":0,"parameterNumber":2,"parameterNumberName":"U-component_of_WINDS"},"data":[0,0,0,0,0,0,0,0,0,0,0,0,0,0,0,0,0,0,0,0,0,0,0,0,0,0,0,0,0,0,0,0,0,0,0,0,0,0,0,0,0,0,0,0,0,0,0,0,0,0,0,0,0,0,0,0,0,0,-6.7099,-6.7099,0,-6.7085,-6.7085,-6.7085,-6.6918,-6.6913,-6.6909,-6.6905,-6.6891,-6.6895,-6.6898,0,0,0,0,0,0,0,0,0,0,0,0,0,-6.698,-6.6983,-6.7099,-6.7099,-6.7098,-6.7085,-6.7085,-6.7085,-6.6918,-6.6913,-6.6908,-6.6903,-6.689,-6.6894,-6.6899,0,0,0,0,0,0,0,0,0,0,0,0,0,-6.7006,-6.6984,-6.7099,-6.7014,-6.7006,-6.7085,-6.7085,-6.7085,-6.6919,-6.6913,-6.6907,-6.6901,-6.6889,-6.6894,-6.6899,-6.7059,0,0,-6.6916,-6.6918,0,0,0,0,0,0,0,0,-6.7004,-6.701,-6.7026,-6.702,-6.7011,-6.6996,-6.7038,-6.7076,-6.6921,-6.6952,-6.6905,-6.6898,-6.6931,-6.6933,-6.6944,-6.7058,-6.7058,-6.6916,-6.6919,-6.6922,-6.6923,0,0,0,0,0,0,0,-6.7003,-6.701,-6.7093,-6.7027,-6.7018,-6.6976,-6.6973,-6.7044,-6.6978,-6.6949,-6.6937,-6.6938,-6.6926,-6.694,-6.6943,-6.7057,-6.6916,-6.6921,-6.6924,-6.6926,-6.7301,-6.7308,0,0,0,0,0,0,-6.7013,-6.7009,-6.7094,-6.7093,-6.6992,-6.6983,-6.698,-6.7008,-6.6976,-6.6965,-6.6943,-6.693,-6.6933,-6.6937,-6.6942,-6.7125,-6.6922,-6.6927,-6.693,-6.7294,-6.7303,-6.731,0,0,0,0,0,0,-6.7011,-6.7022,-6.7094,-6.7048,-6.7054,-6.6992,-6.7025,-6.7011,-6.7024,-6.6972,-6.6959,-6.6969,-6.6929,-6.6934,-6.7031,-6.7123,-6.6929,-6.6934,-6.7286,-6.7297,-6.7306,-6.7496,0,0,0,0,0,0,-6.7008,-6.7022,-6.7082,-6.705,-6.7057,-6.7184,-6.7031,-6.7015,-6.7033,-6.7016,-6.6993,-6.6983,-6.6924,-6.7024,-6.7036,-6.7127,-6.6938,-6.7278,-6.7291,-6.7303,-6.7481,-6.7511,-6.7537,0,0,0,0,0,-6.7005,-6.7136,-6.7086,-6.7097,-6.7131,-6.719,-6.7194,-6.7123,-6.7042,-6.7101,-6.7068,-6.6983,-6.7111,-6.7035,-6.7048,-6.7141,-6.7272,-6.7287,-6.7302,-6.7469,-6.7505,-6.7536,0,0,0,0,0,0,-6.7181,-6.7131,-6.7074,-6.72,-6.7201,-6.7162,-6.7235,-6.7165,-6.7188,-6.7171,-6.7083,-6.7079,-6.7189,-6.7175,-6.7091,-6.7294,-6.7177,-6.7195,-6.7299,-6.7333,-6.7361,-6.7362,-6.6942,0,0,0,0,0,-6.7234,-6.7287,-6.724,-6.7355,-6.7358,-6.7297,-6.732,-6.7266,-6.7263,-6.7262,-6.7236,-6.7236,-6.7276,-6.7304,-6.7338,-6.7479,-6.7471,-6.7549,-6.7577,-6.76,-6.7617,-6.769,-6.7724,-6.736,-6.736,-6.7359,0,0,-6.7345,-6.7324,-6.7363,-6.739,-6.7384,-6.744,-6.7298,-6.7363,-6.7404,-6.7272,-6.7361,-6.7343,-6.7337,-6.7457,-6.7508,-6.7448,-6.7716,-6.762,-6.7639,-6.7642,-6.7709,-6.7743,-6.7774,-6.737,-6.7368,-6.7367,0,0,-6.7575,-6.7566,-6.766,-6.7657,-6.765,-6.7608,-6.7631,-6.7603,-6.7585,-6.7674,-6.7576,-6.7623,-6.7694,-6.7694,-6.7703,-6.7934,-6.7857,-6.7948,-6.8093,-6.8165,-6.8194,-6.8219,-6.8301,-6.8331,-6.7965,-6.7965,-6.7966,0,-6.7714,-6.7794,-6.7717,-6.7789,-6.7803,-6.7687,-6.7782,-6.7783,-6.7788,-6.78,-6.7733,-6.7819,-6.7808,-6.7925,-6.7982,-6.7993,-6.8016,-6.7949,-6.8196,-6.822,-6.8243,-6.8319,-6.8351,-6.7976,-6.7975,-6.7974,-6.7973,0,-6.7965,-6.8022,-6.8099,-6.8106,-6.813,-6.8213,-6.8148,-6.8181,-6.8126,-6.8092,-6.8183,-6.8165,-6.8193,-6.8217,-6.8164,-6.8327,-6.829,-6.8212,-6.8092,-6.829,-6.836,-6.8389,-6.7992,-6.7988,-6.7985,-6.7982,0,0,-6.8305,-6.8268,-6.8298,-6.8299,-6.8283,-6.8326,-6.8404,-6.8431,-6.8461,-6.8468,-6.8531,-6.8594,-6.8521,-6.8532,-6.8477,-6.8541,-6.8724,-6.8453,-6.8452,-6.8503,-6.8902,-6.8961,-6.8996,-6.8673,-6.8679,-6.8683,-6.8903,0,-6.8526,-6.8656,-6.8589,-6.8728,-6.8779,-6.867,-6.8738,-6.8735,-6.8706,-6.8745,-6.8712,-6.8758,-6.8658,-6.8664,-6.8722,-6.869,-6.8803,-6.8673,-6.873,-6.8733,-6.8734,-6.9033,-6.9095,-6.9303,-6.893,-6.8934,-6.8938,0,-6.8801,-6.8819,-6.8964,-6.8937,-6.8956,-6.9019,-6.9038,-6.9077,-6.9072,-6.9046,-6.9059,-6.8989,-6.9064,-6.8947,-6.9048,-6.8961,-6.8981,-6.8969,-6.8975,-6.8976,-6.8847,-6.9042,-6.9368,-6.9399,-6.8981,-6.8977,-6.8974,0,-6.9033,-6.9094,-6.9188,-6.9193,-6.9165,-6.9211,-6.9202,-6.919,-6.9211,-6.9229,-6.9241,-6.9267,-6.9282,-6.9304,-6.9243,-6.9164,-6.9353,-6.923,-6.9332,-6.9334,-6.9376,-6.9374,-6.9709,-6.9392,-6.9391,-6.9391,-6.939,0,-6.9286,-6.9378,-6.9292,-6.935,-6.945,-6.9372,-6.9473,-6.9452,-6.9443,-6.9495,-6.9403,-6.9453,-6.9371,-6.9413,-6.9366,-6.9457,-6.9464,-6.9445,-6.9431,-6.9453,-6.9455,-6.9463,-6.9447,-6.9399,-6.9397,-6.9395,-6.9394,0,-6.9561,-6.9507,-6.9602,-6.9568,-6.9562,-6.9637,-6.9608,-6.966,-6.9624,-6.9691,-6.9702,-6.9646,-6.9691,-6.9633,-6.9673,-6.9642,-6.9765,-6.973,-6.9767,-6.9756,-6.9861,-6.9852,-7.0212,-7.0255,-6.9912,-6.9915,-6.9918,0,-6.9726,-6.9794,-6.9767,-6.9795,-6.9791,-6.9837,-6.9858,-6.9785,-6.981,-6.981,-6.9862,-6.9899,-6.9925,-7.0002,-6.9965,-6.9995,-6.996,-7.0084,-6.9963,-6.9983,-6.996,-6.9956,-6.9962,-7.0108,-7.0112,-7.0116,-7.0118,0,-7.0023,-6.9993,-7.0026,-7.005,-7.0077,-7.0093,-7.0101,-7.013,-7.0053,-7.0086,-7.0131,-7.0151,-7.0192,-7.023,-7.025,-7.024,-7.0167,-7.0157,-7.0182,-7.0203,-7.0221,-7.0212,-6.9832,-7.0148,-7.0145,-7.0143,-7.0142,-7.014,-7.0247,-7.0302,-7.0292,-7.0332,-7.033,-7.0341,-7.0388,-7.0358,-7.0394,-7.0421,-7.0376,-7.0432,-7.0426,-7.0445,-7.0444,-7.0487,-7.0433,-7.047,-7.0478,-7.0488,-7.0504,-7.0216,-7.049,-7.049,-7.0489,-7.0488,-7.0487,0,-7.0538,-7.0526,-7.0563,-7.0578,-7.061,-7.0538,-7.0544,-7.0575,-7.0626,-7.0626,-7.0653,-7.0705,-7.0742,-7.0708,-7.0738,-7.0779,-7.0747,-7.079,-7.0785,-7.0784,-7.0551,-7.0526,-7.0815,-7.0815,-7.0815,-7.0815,-7.0815,-7.0815,-7.0693,-7.0782,-7.0751,-7.0839,-7.0826,-7.0881,-7.089,-7.0899,-7.0899,-7.096,-7.099,-7.0968,-7.0954,-7.0983,-7.1013,-7.1002,-7.1017,-7.1072,-7.105,-7.0832,-7.08,-7.0769,-7.0745,-7.1077,-7.1077,-7.1279,-7.1281,-7.1282]},{"header":{"parameterUnit":"m.s-1","parameterCategory":1,"la1":30.2991,"la2":30.254,"lo1":-89.0895,"lo2":-89.0444,"dy":0.0017,"dx":0.0017,"nx":28,"ny":28,"refTime":"2023-09-26T21:00:00:Z","depth":0,"parameterNumber":3,"parameterNumberName":"V-component_of_WINDS"},"data":[0,0,0,0,0,0,0,0,0,0,0,0,0,0,0,0,0,0,0,0,0,0,0,0,0,0,0,0,0,0,0,0,0,0,0,0,0,0,0,0,0,0,0,0,0,0,0,0,0,0,0,0,0,0,0,0,0,0,-2.9179,-2.918,0,-2.9252,-2.9253,-2.9254,-2.923,-2.9228,-2.9226,-2.9225,-2.9296,-2.93,-2.9303,0,0,0,0,0,0,0,0,0,0,0,0,0,-2.9014,-2.9017,-2.9179,-2.918,-2.9181,-2.9252,-2.9253,-2.9254,-2.923,-2.9228,-2.9226,-2.9224,-2.9295,-2.9299,-2.9303,0,0,0,0,0,0,0,0,0,0,0,0,0,-2.9086,-2.9018,-2.9179,-2.9177,-2.9178,-2.9252,-2.9253,-2.9254,-2.923,-2.9228,-2.9225,-2.9223,-2.9294,-2.9299,-2.9304,-2.9383,0,0,-2.9319,-2.9322,0,0,0,0,0,0,0,0,-2.9082,-2.9092,-2.9177,-2.9178,-2.9178,-2.9229,-2.9221,-2.9297,-2.9231,-2.921,-2.9225,-2.9222,-2.9276,-2.9282,-2.9301,-2.9386,-2.9389,-2.932,-2.9323,-2.9325,-2.9326,0,0,0,0,0,0,0,-2.9077,-2.9089,-2.9208,-2.9178,-2.9179,-2.9172,-2.9179,-2.9235,-2.9255,-2.9212,-2.921,-2.922,-2.9276,-2.9296,-2.9302,-2.939,-2.932,-2.9324,-2.9327,-2.9329,-2.9542,-2.9545,0,0,0,0,0,0,-2.9072,-2.9085,-2.9206,-2.921,-2.9124,-2.9177,-2.9185,-2.9215,-2.9255,-2.9258,-2.9221,-2.9218,-2.9289,-2.9297,-2.9305,-2.9399,-2.9325,-2.933,-2.9333,-2.9539,-2.9543,-2.9545,0,0,0,0,0,0,-2.9069,-2.9083,-2.9203,-2.9147,-2.9162,-2.9182,-2.9216,-2.9218,-2.9239,-2.9262,-2.9265,-2.9239,-2.9287,-2.9298,-2.9363,-2.9401,-2.9332,-2.9337,-2.9536,-2.954,-2.9544,-2.9589,0,0,0,0,0,0,-2.9064,-2.9082,-2.9113,-2.9148,-2.9165,-2.9261,-2.9219,-2.9221,-2.9248,-2.9244,-2.9279,-2.9283,-2.9286,-2.9356,-2.9369,-2.9407,-2.9341,-2.9533,-2.9538,-2.9543,-2.9584,-2.9594,-2.9602,0,0,0,0,0,-2.9058,-2.9122,-2.9115,-2.913,-2.9205,-2.9264,-2.9273,-2.9277,-2.9251,-2.9282,-2.9296,-2.9282,-2.9395,-2.9363,-2.9377,-2.9417,-2.9531,-2.9537,-2.9542,-2.958,-2.9592,-2.9602,0,0,0,0,0,0,-2.909,-2.9127,-2.9119,-2.9197,-2.9227,-2.9259,-2.9298,-2.9289,-2.9327,-2.9322,-2.9324,-2.9332,-2.9399,-2.9415,-2.9378,-2.9495,-2.9459,-2.9468,-2.9483,-2.9494,-2.9503,-2.9498,-2.9345,0,0,0,0,0,-2.9106,-2.9153,-2.9182,-2.9247,-2.9263,-2.9278,-2.9304,-2.9304,-2.9335,-2.9348,-2.9368,-2.9398,-2.944,-2.9468,-2.9508,-2.9586,-2.9593,-2.9621,-2.963,-2.9637,-2.9645,-2.9686,-2.9699,-2.9565,-2.9565,-2.9565,0,0,-2.914,-2.9166,-2.9195,-2.9254,-2.9278,-2.9324,-2.9289,-2.934,-2.9374,-2.9355,-2.9419,-2.9434,-2.9468,-2.954,-2.9572,-2.9555,-2.9683,-2.9644,-2.965,-2.9654,-2.9693,-2.9706,-2.9717,-2.9569,-2.9568,-2.9567,0,0,-2.9225,-2.9249,-2.9306,-2.9331,-2.9368,-2.9378,-2.9391,-2.9425,-2.9435,-2.9499,-2.9486,-2.9525,-2.9599,-2.9623,-2.9645,-2.9739,-2.9726,-2.9752,-2.9799,-2.9839,-2.985,-2.9859,-2.9892,-2.9904,-2.9759,-2.9759,-2.9759,0,-2.9261,-2.9333,-2.9336,-2.9389,-2.9415,-2.9401,-2.9458,-2.9481,-2.9529,-2.9547,-2.9526,-2.9618,-2.9639,-2.9717,-2.974,-2.9758,-2.9773,-2.9748,-2.9848,-2.9858,-2.9866,-2.9898,-2.991,-2.9762,-2.9762,-2.9761,-2.9761,0,-2.9375,-2.9425,-2.9466,-2.9514,-2.9544,-2.9599,-2.961,-2.964,-2.9637,-2.9649,-2.9713,-2.9739,-2.9784,-2.9802,-2.9799,-2.9879,-2.9867,-2.9848,-2.9811,-2.9882,-2.9911,-2.9924,-2.9766,-2.9765,-2.9764,-2.9764,0,0,-2.9482,-2.9532,-2.9547,-2.9568,-2.9608,-2.9645,-2.9698,-2.9743,-2.9769,-2.9802,-2.9846,-2.9908,-2.9891,-2.9915,-2.9915,-2.9951,-3.0023,-2.9927,-2.9928,-2.9944,-3.0111,-3.0125,-3.0139,-3.0015,-3.0017,-3.0019,-3.0108,0,-2.957,-2.9665,-2.967,-2.9755,-2.98,-2.9788,-2.9834,-2.9862,-2.9874,-2.9913,-2.9925,-2.9969,-2.9943,-2.9958,-2.9993,-3.0007,-3.0057,-3.0001,-3.0055,-3.0057,-3.0047,-3.0155,-3.017,-3.0253,-3.012,-3.0122,-3.0123,0,-2.9685,-2.9723,-2.9814,-2.9847,-2.9866,-2.9907,-2.9949,-2.9987,-3.0018,-3.0024,-3.0052,-3.0047,-3.01,-3.0062,-3.0134,-3.0096,-3.0118,-3.0129,-3.0132,-3.0137,-3.0094,-3.0162,-3.0279,-3.0292,-3.0141,-3.014,-3.0139,0,-2.9754,-2.9827,-2.9891,-2.991,-2.995,-2.9979,-2.9997,-3.0026,-3.0053,-3.0089,-3.0106,-3.0147,-3.0169,-3.0201,-3.0206,-3.0178,-3.0279,-3.0241,-3.0284,-3.0284,-3.0306,-3.0304,-3.0428,-3.0321,-3.0321,-3.032,-3.032,0,-2.9851,-2.9907,-2.9922,-2.9961,-3.0023,-3.0027,-3.0088,-3.0103,-3.013,-3.017,-3.0161,-3.02,-3.0205,-3.0244,-3.0249,-3.0308,-3.0318,-3.0323,-3.0324,-3.0324,-3.0323,-3.0339,-3.0333,-3.0324,-3.0323,-3.0322,-3.0322,0,-2.9938,-2.9951,-3.0019,-3.0052,-3.0061,-3.0105,-3.0132,-3.0169,-3.018,-3.0232,-3.0244,-3.0261,-3.0306,-3.0315,-3.0369,-3.0372,-3.0442,-3.0437,-3.0432,-3.0431,-3.0474,-3.0469,-3.0611,-3.0629,-3.051,-3.0512,-3.0513,0,-2.9999,-3.0042,-3.0079,-3.0107,-3.0126,-3.0171,-3.0198,-3.0204,-3.0232,-3.0272,-3.0303,-3.0348,-3.0385,-3.0458,-3.0474,-3.0515,-3.051,-3.0557,-3.0516,-3.0515,-3.0511,-3.0508,-3.0512,-3.0565,-3.0566,-3.0567,-3.0568,0,-3.0106,-3.011,-3.0151,-3.0194,-3.0228,-3.0261,-3.0293,-3.0316,-3.0326,-3.0358,-3.0406,-3.0434,-3.0489,-3.0533,-3.0574,-3.0591,-3.0581,-3.0581,-3.0593,-3.0593,-3.0589,-3.0591,-3.0453,-3.0577,-3.0576,-3.0576,-3.0575,-3.0575,-3.0181,-3.0219,-3.0251,-3.0297,-3.0322,-3.0352,-3.0388,-3.0404,-3.0444,-3.049,-3.0491,-3.0542,-3.0572,-3.0626,-3.0645,-3.0685,-3.067,-3.0687,-3.0692,-3.0696,-3.07,-3.0583,-3.0692,-3.0692,-3.0692,-3.0691,-3.0691,0,-3.0287,-3.0308,-3.035,-3.0396,-3.0431,-3.042,-3.0455,-3.0485,-3.0531,-3.056,-3.0596,-3.065,-3.0693,-3.0713,-3.0755,-3.0783,-3.0779,-3.0794,-3.0792,-3.0795,-3.0711,-3.0696,-3.0796,-3.0796,-3.0796,-3.0796,-3.0796,-3.0796,-3.0347,-3.0409,-3.0418,-3.0492,-3.0511,-3.0563,-3.0584,-3.0611,-3.0635,-3.0696,-3.0732,-3.0745,-3.077,-3.0814,-3.0852,-3.0857,-3.0873,-3.0889,-3.0892,-3.0812,-3.0801,-3.0791,-3.0777,-3.0893,-3.0893,-3.0973,-3.0974,-3.0974]}]]